User: anonymous   Login
Location: Le Hiès Ruisseau
(43.3000°N, 0.4500°W)
Time: 08:47:03
(UTC+00:00)
Language:

CZ-4 R/B - Orbit

View from above orbital plane
View from above orbital plane
View from above satellite
View from above satellite

Ground track
Ground track

The orbit data is extracted from the following two-line orbital elements,

1 28414U 04035B   23151.88765197  .00000857  00000-0  82533-4 0  9999
2 28414  97.6929 171.2465 0005367 341.6387  18.4639 14.95502765 20009
Epoch (UTC): 31 May 2023 21:18:13
Eccentricity: 0.0005367
inclination: 97.6929°
perigee height: 577 km
apogee height: 584 km
right ascension of ascending node: 171.2465°
argument of perigee: 341.6387°
revolutions per day: 14.95502765
mean anomaly at epoch: 18.4639°
orbit number at epoch: 2000

The dashed part of the orbit path shows where the satellite is in the earth's shadow,  

DLR